Weather History for KBTR - December, 2013

Change the Weather History Date:

Saturday, December 28, 2013

  Actual Average Record
Temperature  
Mean Temperature 48 °F 52 °F  
Max Temperature 51 °F 62 °F 79 °F (1984)
Min Temperature 44 °F 41 °F 18 °F (1904)
Degree Days  
Heating Degree Days 17 14  
Month to date heating degree days 386 339  
Since 1 July heating degree days 673 574  
Cooling Degree Days 0 1  
Month to date cooling degree days 44 28  
Year to date cooling degree days 2710 2829  
Moisture  
Dew Point 44 °F    
Average Humidity 78    
Maximum Humidity 100    
Minimum Humidity 56    
Precipitation  
Precipitation 0.52 in 0.18 in 2.40 in (1901)
Month to date precipitation 3.72 5.04  
Year to date precipitation 68.86 60.09  
Snow  
Snow 0.00 in - - ()
Month to date snowfall 0.0  
Since 1 July snowfall 0.0  
Snow Depth 0.00 in    
Sea Level Pressure  
Sea Level Pressure 30.12 in    
Wind  
Wind Speed 4 mph (NNW)    
Max Wind Speed 10 mph    
Max Gust Speed 14 mph    
Visibility 8 miles    
Events Rain    
T = Trace of Precipitation, MM = Missing Value Source: NWS Daily Summary

Daily Weather History Graph

Daily Weather History Graph

Search for Another Location

Airport or City:

Trip Planner

Search our weather history database for the weather conditions in past years. The results will help you decide how hot, cold, wet, or windy it might be!

Date:

Astronomy

Dec. 28, 2013 Rise Set
Actual Time 7:00 AM CST 5:12 PM CST
Civil Twilight 6:34 AM CST 5:38 PM CST
Nautical Twilight 6:04 AM CST 6:08 PM CST
Astronomical Twilight 5:34 AM CST 6:38 PM CST
Moon 2:47 AM CST (12/28) 1:55 PM CST (12/28)
Length of Visible Light 11h 04m
Length of Day
10h 11m
Waning Crescent, 19% of the Moon is Illuminated
Dec 28
Waning Crescent
Jan 1
New
Jan 7
First Quarter
Jan 15
Full
Jan 23
Last Quarter

Hourly Weather History & Observations

Time (CST) Temp. Windchill Dew Point Humidity Pressure Visibility Wind Dir Wind Speed Gust Speed Precip Events Conditions
12:53 AM 48.0 °F - 34.0 °F 58% 30.29 in 10.0 mi Calm Calm - 0.00 in   Mostly Cloudy
1:53 AM 48.0 °F - 33.1 °F 56% 30.28 in 10.0 mi NNE 4.6 mph - 0.00 in   Overcast
2:53 AM 46.9 °F - 35.1 °F 63% 30.26 in 10.0 mi NNE 3.5 mph - 0.00 in   Mostly Cloudy
3:53 AM 45.0 °F 42.6 °F 37.9 °F 76% 30.23 in 10.0 mi NE 4.6 mph - 0.01 in Rain Light Rain
4:53 AM 45.0 °F 41.8 °F 37.0 °F 74% 30.20 in 10.0 mi NNE 5.8 mph - 0.01 in Rain Light Rain
5:43 AM 44.6 °F 43.1 °F 39.2 °F 81% 30.22 in 10.0 mi North 3.5 mph - 0.00 in Rain Light Rain
5:50 AM 44.6 °F - 39.2 °F 81% 30.22 in 10.0 mi Calm Calm - 0.00 in Rain Light Rain
5:53 AM 45.0 °F - 39.9 °F 82% 30.23 in 10.0 mi Calm Calm - 0.00 in Rain Light Rain
6:53 AM 44.1 °F 41.5 °F 41.0 °F 89% 30.22 in 8.0 mi North 4.6 mph - 0.04 in Rain Light Rain
7:53 AM 44.1 °F 42.5 °F 42.1 °F 93% 30.22 in 8.0 mi Variable 3.5 mph - 0.05 in Rain Light Rain
8:53 AM 45.0 °F - 42.1 °F 90% 30.23 in 10.0 mi Calm Calm - 0.02 in Rain Light Rain
9:53 AM 46.0 °F 41.4 °F 44.1 °F 93% 30.18 in 8.0 mi ENE 9.2 mph - 0.08 in Rain Light Rain
10:23 AM 46.4 °F 44.3 °F 44.6 °F 93% 30.17 in 7.0 mi North 4.6 mph - 0.01 in Rain Light Rain
10:53 AM 46.9 °F - 45.0 °F 93% 30.14 in 6.0 mi Variable 5.8 mph - 0.04 in Rain Light Rain
11:53 AM 48.9 °F - 46.9 °F 93% 30.14 in 5.0 mi WNW 5.8 mph - 0.03 in Rain Light Rain
12:16 PM 48.2 °F - 46.4 °F 93% 30.12 in 2.0 mi Variable 5.8 mph - 0.01 in Rain Light Rain
12:53 PM 50.0 °F - 48.0 °F 93% 30.09 in 2.0 mi NW 5.8 mph - 0.02 in Rain Light Rain
1:53 PM 50.0 °F - 48.0 °F 93% 30.04 in 2.0 mi North 3.5 mph - 0.05 in Rain Light Rain
2:53 PM 51.1 °F - 48.9 °F 92% 30.04 in 3.0 mi NW 4.6 mph - 0.08 in Rain Rain
3:53 PM 51.1 °F - 48.9 °F 92% 30.01 in 4.0 mi NW 5.8 mph - 0.05 in Rain Light Rain
4:08 PM 51.8 °F - 48.2 °F 88% 30.03 in 10.0 mi WNW 8.1 mph - 0.00 in Rain Light Rain
4:53 PM 50.0 °F - 48.0 °F 93% 30.03 in 4.0 mi WNW 4.6 mph - 0.01 in Rain Light Rain
5:53 PM 48.9 °F - 46.9 °F 93% 30.04 in 5.0 mi West 8.1 mph - 0.01 in Rain Light Rain
6:53 PM 48.9 °F - 46.9 °F 93% 30.04 in 10.0 mi NW 4.6 mph - 0.02 in Rain Light Rain
7:53 PM 48.0 °F - 46.0 °F 93% 30.03 in 10.0 mi WNW 3.5 mph - 0.00 in   Overcast
8:53 PM 48.0 °F - 46.0 °F 93% 30.03 in 10.0 mi Calm Calm - N/A   Overcast
9:33 PM 48.2 °F - 46.4 °F 93% 30.02 in 10.0 mi Calm Calm - N/A   Overcast
9:53 PM 46.9 °F - 46.0 °F 97% 30.00 in 9.0 mi NW 3.5 mph - N/A   Overcast
10:04 PM 46.4 °F 45.2 °F 46.4 °F 100% 30.00 in 9.0 mi NW 3.5 mph - N/A   Overcast
10:53 PM 46.9 °F - 46.0 °F 97% 30.02 in 10.0 mi NW 3.5 mph - N/A   Overcast
11:53 PM 46.9 °F - 46.0 °F 97% 30.01 in 8.0 mi Calm Calm - N/A   Overcast